User: anonymous   Login
Location: Winnipauk Village
(41.1295°N, 73.4171°W)
Time: 02:58:43
(UTC+00:00)
Language:

N. Korean satellite - Orbit

View from above orbital plane
View from above orbital plane
View from above satellite
View from above satellite

Ground track
Ground track

The orbit data is extracted from the following two-line orbital elements,

1 39026U 12072A   21265.44529858  .00004680  00000-0  15681-3 0  9995
2 39026  97.2512 256.0155 0036388  40.9976 319.3990 15.30767492487866
Epoch (UTC): 22 September 2021 10:41:13
Eccentricity: 0.0036388
inclination: 97.2512°
perigee height: 448 km
apogee height: 498 km
right ascension of ascending node: 256.0155°
argument of perigee: 40.9976°
revolutions per day: 15.30767492
mean anomaly at epoch: 319.3990°
orbit number at epoch: 48786

The dashed part of the orbit path shows where the satellite is in the earth's shadow,  

DLR